Location: Aufkirchen
(47.9603°N, 11.3653°E)
Time: 14:23:17
(UTC+01:00)

Transit 2A Rocket - Pass Details

Date: 08 December 2020
Orbit: 592 x 910 km, 66.7° (Epoch: 21 January)

Event Time Altitude Azimuth Distance (km) Brightness Sun altitude
Rises 03:16:00 0° 288° (WNW) 3,386 - -44.9°
Reaches altitude 10° 03:20:16 10° 318° (NW) 2,375 - -44.2°
Maximum altitude 03:22:22 12° 341° (NNW) 2,186 - -43.8°
Drops below altitude 10° 03:24:26 10° 4° (N) 2,292 - -43.5°
Exits shadow 03:27:04 - 27° (NNE) 2,789 8.3 -43.1°
Sets 03:28:23 0° 35° (NE) 3,131 8.7 -42.9°
